Cloud_Cover
95 100 100 100 100 89 64 81 55 10 5 0 0 9 11 64 27 52 84 75 51 94 82 82 88 100 100 17 5 5 5 5 5 3 5 3 21 28 25 20 6 11 93 99 44 88 100 51 88
96 100 100 100 100 100 100 100 28 9 9 4 0 100 100 100 75 100 94 100 100 100 99 79 92 100 100 100 15 5 5 5 3 12 34 100 18 56 100 74 43 49 97 92 80 93 100 100 100
99 100 100 100 100 100 90 39 5 5 5 5 0 3 85 100 85 98 100 100 100 100 100 30 100 100 100 99 80 14 7 5 1 48 38 100 83 100 100 100 46 78 69 50 50 48 84 90 21
100 77 100 100 100 97 98 12 5 25 16 5 0 11 0 2 76 91 100 100 97 96 52 14 31 100 100 73 40 5 5 5 16 100 100 100 100 100 100 38 99 100 100 100 99 100 100 83 100
100 100 69 56 9 5 30 14 5 8 36 5 2 7 62 66 94 96 97 100 92 84 45 98 100 100 100 100 100 100 100 81 98 70 86 70 100 100 43 88 100 100 100 100 100 100 100 100 100
100 100 92 72 20 52 97 72 64 46 11 5 1 4 96 93 80 81 82 97 99 98 100 96 100 100 100 100 100 92 86 95 76 95 77 88 75 27 48 10 46 87 98 100 100 100 100 94 100
100 100 100 93 5 7 29 6 5 49 83 16 4 21 93 96 92 86 99 94 95 94 100 100 100 50 100 100 70 100 100 100 100 98 30 5 0 0 5 1 5 13 30 54 26 10 5 5 5
100 97 17 5 5 2 4 0 5 7 86 67 20 18 81 52 99 100 100 100 98 100 91 100 38 68 98 100 100 100 100 100 90 31 82 68 5 0 0 0 5 1 4 31 19 43 5 5 5
51 70 86 5 13 5 5 5 5 5 46 36 53 5 49 23 71 100 100 86 63 89 100 82 62 49 49 86 94 100 56 17 88 84 11 90 17 4 5 3 0 0 0 0 0 0 0 5 3
76 84 57 52 77 87 100 95 91 5 77 83 100 100 99 96 92 98 100 100 100 70 100 100 100 100 100 100 100 77 30 94 99 64 95 32 5 5 5 5 1 0 0 0 0 0 0 0 0
100 100 76 99 20 3 0 46 100 91 100 46 70 100 97 100 62 100 100 80 54 68 100 92 49 100 100 100 98 78 87 70 89 75 36 26 52 6 5 3 5 2 5 0 0 0 0 0 0
100 88 37 83 14 25 18 2 5 8 68 98 86 55 94 24 94 100 100 100 83 100 100 99 100 95 100 100 98 100 100 100 45 77 65 96 50 9 5 5 5 3 5 2 0 1 4 2 5
5 6 42 99 100 100 100 75 36 61 64 91 52 22 20 96 54 13 55 88 100 100 96 7 88 92 100 100 100 100 92 86 100 98 100 69 84 81 34 100 68 96 74 28 19 19 6 13 5
0 0 45 100 95 86 15 8 1 5 8 54 23 12 5 17 34 49 43 7 27 100 100 88 96 98 98 97 99 100 100 100 100 100 100 100 93 99 100 100 56 50 82 46 98 100 96 60 4
61 97 100 6 35 5 5 30 0 0 8 17 8 5 2 5 5 6 6 34 98 100 100 100 100 100 85 18 72 100 95 64 77 100 100 100 100 100 100 100 100 100 100 100 100 100 100 100 98
100 54 60 6 22 23 2 78 7 2 0 1 6 6 7 5 2 8 5 13 100 100 100 100 96 100 100 87 100 100 100 100 95 91 96 98 100 100 100 100 100 100 100 100 99 98 100 91 83
100 100 100 100 14 4 4 2 0 11 1 0 5 56 48 63 72 100 99 100 100 100 100 100 100 100 100 100 100 100 100 100 100 100 76 99 99 100 92 100 100 98 87 50 50 98 100 100 100
99 51 100 87 5 5 9 5 2 5 0 3 0 0 1 3 25 100 100 100 100 100 30 12 59 67 62 64 81 100 100 100 100 86 100 100 100 100 100 100 100 100 91 70 89 100 100 100 91
18 15 52 37 5 0 2 1 5 4 4 5 82 66 0 0 4 6 56 100 100 100 100 100 100 100 100 100 100 100 100 100 100 94 100 77 76 53 68 100 88 84 96 100 97 100 100 89 64
100 93 28 25 32 1 3 5 5 12 2 2 0 5 11 17 22 3 10 63 79 93 100 100 100 100 100 100 100 100 100 100 100 100 37 7 30 100 94 100 98 88 100 100 62 85 100 100 96
100 82 48 12 32 19 5 35 61 22 0 0 1 13 65 8 15 62 38 55 74 55 58 83 61 68 96 99 100 100 100 100 100 100 100 100 100 100 100 100 100 100 100 95 99 100 100 100 100
100 64 97 87 52 6 6 24 74 1 4 4 4 5 5 5 5 5 72 83 53 66 78 95 95 75 59 5 5 8 26 78 100 100 100 74 85 99 100 100 100 100 100 100 100 100 100 100 100
100 100 88 100 15 5 29 8 100 6 5 5 0 6 69 16 42 24 9 16 6 100 100 100 98 99 36 5 8 25 10 5 5 5 24 98 92 100 100 97 62 24 11 35 6 5 7 9 5
95 66 75 17 7 23 42 5 98 6 77 34 37 89 100 100 100 100 66 35 90 100 100 100 100 100 77 5 4 6 5 5 9 6 6 5 5 70 69 61 71 89 90 9 27 93 100 76 78
83 95 73 36 85 83 31 28 96 54 8 98 100 100 100 100 100 100 100 99 100 100 100 100 100 100 76 53 5 17 35 5 50 98 97 90 59 93 100 86 91 100 95 71 97 52 83 100 100
100 100 100 22 24 61 64 7 100 23 32 100 100 100 100 61 15 25 23 100 100 100 100 100 100 98 100 100 43 24 100 100 86 56 100 100 100 98 100 77 100 100 100 99 100 100 100 100 100
100 90 75 57 33 40 56 100 100 100 100 100 100 100 75 100 100 100 99 74 98 100 100 100 100 100 100 100 100 98 78 100 100 13 12 88 99 100 100 100 100 100 100 100 100 100 100 100 100
98 100 100 100 100 100 100 100 100 100 100 100 100 100 100 100 99 100 100 100 100 100 100 100 100 100 100 100 100 100 100 100 86 10 85 100 100 100 79 100 100 98 95 85 98 96 100 100 100
100 100 100 100 100 100 100 100 100 100 100 100 100 100 100 100 100 100 100 100 100 100 100 100 100 100 100 100 100 100 100 100 100 42 94 98 100 100 100 100 89 100 100 100 100 100 100 100 100
100 100 100 100 100 100 100 100 100 100 100 100 100 100 100 100 100 100 100 100 100 100 100 100 100 100 100 100 100 100 100 100 100 78 100 100 97 100 100 100 100 100 100 100 100 100 100 100 100